This demonstration page uses our WeatherBlox Daily Observations layout. Learn more.

Left ArrowRight Arrow

41.86663, -103.66717

Hourly Observations for August 28, 2021

Temp ( °F °C ) Dew Point ( °F °C ) Humidity (%) Winds ( mph kmh ) Pressure ( in mb ) Visibility ( mi km ) Precip ( " mm )
12:53 am 00:53 Clear 76 24.4 50 10 40 40 ESE 10 17 29.70 1006 10 16 0.00 0.00
1:53 am 01:53 Clear 71 21.7 50 10 47 47 N N/A 29.70 1006 10 16 N/A
2:53 am 02:53 Clear 65 18.3 51 10.6 61 61 W 9 15 29.74 1007 10 16 N/A
3:53 am 03:53 Clear 60 15.6 50 10 70 70 NW 9 15 29.77 1008 10 16 N/A
4:53 am 04:53 Clear 57 13.9 50 10 78 78 W 6 9 29.78 1009 10 16 N/A
5:53 am 05:53 Clear 55 12.8 50 10 83 83 WNW 6 9 29.82 1010 10 16 N/A
6:53 am 06:53 Sunny 57 13.9 53 11.7 87 87 W 6 9 29.84 1011 10 16 N/A
7:53 am 07:53 Mostly Sunny 59 15 54 12.2 83 83 NNW 5 7 29.87 1011 10 16 N/A
8:17 am 08:17 Mostly Cloudy 61 16.1 55 12.8 81 81 WNW 5 7 29.87 1011 10 16 N/A
8:53 am 08:53 Cloudy 63 17.2 57 13.9 81 81 W 5 7 29.88 1012 10 16 N/A
9:44 am 09:44 Cloudy 66 19 59 15 78 78 N N/A 29.85 1011 10 16 N/A
9:53 am 09:53 Mostly Cloudy 68 20 59 15 73 73 VRB 3 6 29.88 1012 10 16 N/A
10:53 am 10:53 Cloudy 73 22.8 59 15 62 62 N N/A 29.88 1012 10 16 N/A
11:33 am 11:33 Mostly Cloudy 77 25 58 14.4 52 52 N 9 15 29.77 1008 10 16 N/A
11:53 am 11:53 Mostly Cloudy 77 25 58 14.4 52 52 N 8 13 29.88 1012 10 16 N/A
12:53 pm 12:53 Mostly Sunny 80 26.7 55 12.8 42 42 N 5 7 29.86 1011 10 16 N/A
1:53 pm 13:53 Sunny 83 28.3 56 13.3 40 40 NE 13 20 29.85 1011 10 16 N/A
2:53 pm 14:53 Sunny 85 29.4 52 11.1 32 32 NE 7 11 29.84 1011 10 16 N/A
3:53 pm 15:53 Sunny 86 30 51 10.6 30 30 NE 8 13 29.85 1011 10 16 N/A
4:53 pm 16:53 Sunny 85 29.4 50 10 30 30 NE 10 17 29.87 1012 10 16 N/A
5:53 pm 17:53 Sunny 81 27.2 54 12.2 39 39 ENE 10 17 29.91 1013 10 16 N/A
6:53 pm 18:53 Sunny 77 25 50 10 39 39 NE 9 15 29.93 1013 10 16 N/A
7:53 pm 19:53 Clear 70 21.1 53 11.7 55 55 NNE 8 13 29.97 1015 10 16 N/A
8:53 pm 20:53 Clear 67 19.4 49 9.4 53 53 NNE 18 30 30.01 1016 10 16 N/A
9:53 pm 21:53 Clear 64 17.8 48 8.9 56 56 NNE 14 22 30.04 1017 10 16 N/A
10:53 pm 22:53 Clear 63 17.2 47 8.3 56 56 VRB 6 9 30.07 1018 10 16 N/A
11:53 pm 23:53 Clear 60 15.6 47 8.3 62 62 N N/A 30.08 1019 10 16 N/A

Powered by AerisWeather